Weather History for Mitchell, SD

Change the Weather History Date:

Saturday, January 12, 2013

  Actual Average Record
Temperature  
Mean Temperature 10 °F 18 °F  
Max Temperature 14 °F 28 °F 63 °F (1987)
Min Temperature 6 °F 9 °F -37 °F (1912)
Degree Days  
Heating Degree Days 55 47  
Month to date heating degree days 532 561  
Since 1 July heating degree days 3382 3496  
Cooling Degree Days 0 0  
Month to date cooling degree days 0 0  
Year to date cooling degree days 0 0  
Moisture  
Dew Point 3 °F    
Average Humidity 78    
Maximum Humidity 88    
Minimum Humidity 67    
Precipitation  
Precipitation T in 0.00 in 0.45 in (1916)
Month to date precipitation 0.01 0.08  
Year to date precipitation 0.01 0.08  
Snow  
Snow T in - 8.00 in (1979)
Month to date snowfall T  
Since 1 July snowfall 10.4  
Snow Depth 2.00 in    
Sea Level Pressure  
Sea Level Pressure 30.05 in    
Wind  
Wind Speed 17 mph (NW)    
Max Wind Speed 26 mph    
Max Gust Speed 32 mph    
Visibility 4 miles    
Events Snow    
T = Trace of Precipitation, MM = Missing Value Source: NWS Daily Summary

Daily Weather History Graph

Daily Weather History Graph

Search for Another Location

Airport:

Trip Planner

Search our weather history database for the weather conditions in past years. The results will help you decide how hot, cold, wet, or windy it might be!

Date:

Astronomy

Jan. 12, 2013 Rise Set
Actual Time 8:04 AM CST 5:17 PM CST
Civil Twilight 7:32 AM CST 5:49 PM CST
Nautical Twilight 6:56 AM CST 6:25 PM CST
Astronomical Twilight 6:21 AM CST 6:59 PM CST
Moon 8:20 AM CST (1/12) 6:52 PM CST (1/12)
Length of Visible Light 10h 17m
Length of Day
9h 13m
New Moon, 1% of the Moon is Illuminated
Jan 12
New Moon
Jan 18
First Quarter
Jan 26
Full
Feb 3
Last Quarter
Feb 10
New

Hourly Weather History & Observations

Time (CST) Temp. Windchill Dew Point Humidity Pressure Visibility Wind Dir Wind Speed Gust Speed Precip Events Conditions
12:40 AM 14.0 °F -2.5 °F 10.4 °F 86% 29.72 in 2.0 mi WNW 17.3 mph 23.0 mph 0.00 in Snow Light Snow
12:44 AM 14.0 °F -2.0 °F 10.4 °F 86% 29.72 in 1.2 mi WNW 16.1 mph 23.0 mph 0.00 in Snow Light Snow
12:53 AM 14.0 °F -4.7 °F 10.0 °F 84% 29.79 in 1.0 mi WNW 23.0 mph 28.8 mph 0.00 in Snow Light Snow
1:27 AM 12.2 °F -6.3 °F 8.6 °F 85% 29.75 in 2.5 mi WNW 20.7 mph - 0.00 in Snow Light Snow
1:45 AM 12.2 °F -5.8 °F 8.6 °F 85% 29.77 in 2.5 mi WNW 19.6 mph 29.9 mph 0.00 in Snow Light Snow
1:51 AM 12.2 °F -5.8 °F 6.8 °F 79% 29.77 in 3.0 mi WNW 19.6 mph 29.9 mph 0.00 in Snow Light Snow
1:53 AM 12.9 °F -4.9 °F 7.0 °F 77% 29.83 in 4.0 mi WNW 19.6 mph - 0.00 in Snow Light Snow
2:12 AM 12.2 °F -6.7 °F 6.8 °F 79% 29.78 in 5.0 mi WNW 21.9 mph 29.9 mph 0.00 in Snow Blowing Snow
2:53 AM 10.9 °F -5.4 °F 5.0 °F 77% 29.88 in 10.0 mi WNW 15.0 mph - 0.00 in   Overcast
3:53 AM 12.0 °F -5.1 °F 3.9 °F 70% 29.92 in 10.0 mi WNW 17.3 mph - N/A   Overcast
4:53 AM 10.9 °F -7.9 °F 3.9 °F 73% 29.93 in 8.0 mi WNW 20.7 mph - 0.00 in Snow Light Snow
5:48 AM 10.4 °F -8.6 °F 5.0 °F 79% 29.89 in 3.0 mi WNW 20.7 mph 25.3 mph 0.00 in Snow Light Snow
5:53 AM 10.9 °F -7.9 °F 5.0 °F 77% 29.96 in 3.0 mi WNW 20.7 mph - 0.00 in Snow Light Snow
6:14 AM 10.4 °F -6.0 °F 3.2 °F 73% 29.90 in 10.0 mi WNW 15.0 mph - 0.00 in   Scattered Clouds
6:53 AM 10.0 °F -9.5 °F 3.0 °F 73% 29.97 in 10.0 mi WNW 21.9 mph 26.5 mph 0.00 in   Clear
7:53 AM 8.1 °F -7.7 °F 1.9 °F 76% 30.02 in 10.0 mi WNW 12.7 mph - N/A   Clear
8:53 AM 9.0 °F -8.5 °F 1.0 °F 70% 30.05 in 10.0 mi NW 16.1 mph - N/A   Clear
9:53 AM 9.0 °F -10.5 °F 1.9 °F 73% 30.10 in 5.0 mi NW 20.7 mph - 0.00 in Snow Light Snow
10:34 AM 8.6 °F -9.5 °F 1.4 °F 73% 30.05 in 9.0 mi NW 17.3 mph - 0.00 in   Mostly Cloudy
10:42 AM 10.4 °F -6.6 °F 1.4 °F 67% 30.05 in 10.0 mi NW 16.1 mph - 0.00 in   Overcast
10:53 AM 10.0 °F -7.1 °F 3.0 °F 73% 30.14 in 7.0 mi WNW 16.1 mph - 0.00 in Snow Light Snow
11:09 AM 10.4 °F -6.0 °F 3.2 °F 73% 30.06 in 1.8 mi NW 15.0 mph - 0.00 in Snow Light Snow
11:20 AM 10.4 °F -7.7 °F 3.2 °F 73% 30.06 in 3.0 mi WNW 18.4 mph - 0.00 in Snow Light Snow
11:53 AM 10.0 °F -10.8 °F 3.0 °F 73% 30.14 in 1.8 mi NW 25.3 mph 29.9 mph 0.00 in Snow Light Snow
12:10 PM 8.6 °F -11.9 °F 1.4 °F 73% 30.06 in 5.0 mi NW 23.0 mph 27.6 mph 0.00 in Snow Blowing Snow
12:53 PM 10.0 °F -8.1 °F 3.0 °F 73% 30.14 in 2.5 mi NNW 18.4 mph - 0.00 in Snow Light Snow
1:01 PM 10.4 °F -8.2 °F 1.4 °F 67% 30.06 in 8.0 mi NW 19.6 mph - 0.00 in   Mostly Cloudy
1:53 PM 10.0 °F -7.6 °F 3.0 °F 73% 30.13 in 7.0 mi NW 17.3 mph - 0.00 in   Overcast
2:05 PM 10.4 °F -9.9 °F 5.0 °F 79% 30.06 in 0.8 mi NW 24.2 mph - 0.00 in Snow Light Snow
2:10 PM 10.4 °F -8.6 °F 5.0 °F 79% 30.06 in 0.2 mi NW 20.7 mph 29.9 mph 0.00 in Snow Heavy Snow
2:17 PM 10.4 °F -8.6 °F 1.4 °F 67% 30.07 in 1.0 mi NW 20.7 mph - 0.00 in Snow Light Snow
2:21 PM 10.4 °F -7.7 °F 1.4 °F 67% 30.06 in 3.0 mi NNW 18.4 mph - 0.00 in Snow Blowing Snow
2:53 PM 10.0 °F -8.1 °F 3.9 °F 76% 30.15 in 3.0 mi NW 18.4 mph - 0.00 in   Overcast
2:56 PM 10.4 °F -7.2 °F 3.2 °F 73% 30.07 in 1.8 mi NW 17.3 mph - 0.00 in Snow Light Snow
3:07 PM 10.4 °F -10.3 °F 3.2 °F 73% 30.06 in 0.8 mi NW 25.3 mph 32.2 mph 0.00 in Snow Light Snow
3:16 PM 10.4 °F -8.2 °F 1.4 °F 67% 30.07 in 1.2 mi NW 19.6 mph 32.2 mph 0.00 in Snow Blowing Snow
3:21 PM 10.4 °F -9.1 °F 1.4 °F 67% 30.07 in 3.0 mi NW 21.9 mph - 0.00 in Snow Blowing Snow
3:35 PM 10.4 °F -8.2 °F 3.2 °F 73% 30.08 in 2.5 mi NNW 19.6 mph - 0.00 in Snow Blowing Snow
3:44 PM 8.6 °F -10.5 °F 3.2 °F 79% 30.08 in 5.0 mi NNW 19.6 mph - 0.00 in Snow Blowing Snow
3:53 PM 9.0 °F -10.5 °F 1.9 °F 73% 30.16 in 4.0 mi NW 20.7 mph - 0.00 in Snow Blowing Snow
4:09 PM 8.6 °F -10.5 °F 1.4 °F 73% 30.07 in 5.0 mi NNW 19.6 mph - 0.00 in   Mostly Cloudy
4:19 PM 8.6 °F -9.5 °F 3.2 °F 79% 30.08 in 1.5 mi NNW 17.3 mph - 0.00 in Snow Light Snow
4:23 PM 8.6 °F -8.9 °F 3.2 °F 79% 30.08 in 0.8 mi NNW 16.1 mph - 0.00 in Snow Light Snow
4:35 PM 8.6 °F -10.5 °F 1.4 °F 73% 30.08 in 1.8 mi NNW 19.6 mph 27.6 mph 0.00 in Snow Light Snow
4:40 PM 8.6 °F -10.0 °F 1.4 °F 73% 30.08 in 3.0 mi NNW 18.4 mph 27.6 mph 0.00 in Snow Blowing Snow
4:53 PM 8.1 °F -11.2 °F 1.9 °F 76% 30.17 in 5.0 mi NNW 19.6 mph - 0.00 in Snow Blowing Snow
4:58 PM 8.6 °F -8.9 °F 3.2 °F 79% 30.09 in 1.5 mi NNW 16.1 mph 24.2 mph 0.00 in Snow Light Snow
5:08 PM 8.6 °F -10.0 °F 1.4 °F 73% 30.10 in 4.0 mi NNW 18.4 mph 25.3 mph 0.00 in Snow Light Snow
5:29 PM 6.8 °F -10.7 °F 1.4 °F 79% 30.10 in 1.5 mi NNW 15.0 mph - 0.00 in Snow Light Snow
5:40 PM 6.8 °F -11.3 °F 1.4 °F 79% 30.11 in 3.0 mi NNW 16.1 mph 24.2 mph 0.00 in   Overcast
5:53 PM 7.0 °F -9.1 °F 1.0 °F 77% 30.21 in 10.0 mi NNW 12.7 mph - 0.00 in   Overcast
6:10 PM 6.8 °F -4.8 °F 1.4 °F 79% 30.14 in 9.0 mi NNW 6.9 mph - N/A   Overcast
6:32 PM 8.6 °F -3.7 °F 3.2 °F 79% 30.15 in 5.0 mi NW 8.1 mph - N/A   Haze
6:39 PM 6.8 °F -5.9 °F 3.2 °F 85% 30.15 in 2.5 mi NW 8.1 mph - N/A   Overcast
6:48 PM 6.8 °F -3.5 °F 3.2 °F 85% 30.15 in 1.2 mi NW 5.8 mph - 0.00 in Snow Light Snow
7:04 PM 8.6 °F -4.7 °F 3.2 °F 79% 30.15 in 1.2 mi NNW 9.2 mph - 0.00 in Snow Light Snow
7:10 PM 8.6 °F -7.0 °F 1.4 °F 73% 30.15 in 3.0 mi NNW 12.7 mph 19.6 mph 0.00 in Snow Light Snow
7:26 PM 8.6 °F -8.9 °F 1.4 °F 73% 30.16 in 7.0 mi NW 16.1 mph - 0.00 in Snow Light Snow
7:53 PM 7.0 °F -12.6 °F 1.9 °F 80% 30.25 in 3.0 mi NW 19.6 mph - 0.00 in Snow Light Snow
8:14 PM 6.8 °F -11.3 °F 1.4 °F 79% 30.16 in 2.5 mi NW 16.1 mph - 0.00 in Snow Light Snow
8:21 PM 6.8 °F -12.4 °F 1.4 °F 79% 30.16 in 3.0 mi NW 18.4 mph - 0.00 in Snow Light Snow
8:53 PM 7.0 °F -9.1 °F 1.0 °F 77% 30.27 in 7.0 mi NW 12.7 mph - 0.00 in Snow Light Snow
9:53 PM 7.0 °F -10.4 °F -0.0 °F 73% 30.25 in 10.0 mi NW 15.0 mph - 0.00 in   Overcast
10:53 PM 7.0 °F -10.4 °F -0.0 °F 73% 30.25 in 10.0 mi NW 15.0 mph - N/A   Overcast
11:53 PM 6.1 °F -12.2 °F -0.9 °F 73% 30.25 in 10.0 mi NNW 16.1 mph - N/A   Mostly Cloudy